Regional Weather Roundup
Issued by NWS

Home | Current Version | Previous Version | Text Only | Print | Product List | Glossary Off
Versions: 1 2 3 4 5 6 7 8 9 10 11 12 13 14 15 16 17 18 19 20 21 22 23 24 25 26 27 28 29 30 31 32 33 34 35 36 37 38 39 40 41 42 43 44 45 46 47 48 49 50

000
ASUS45 KBOU 230307
RWRCO

WEATHER ROUNDUP FOR COLORADO
NATIONAL WEATHER SERVICE DENVER/BOULDER CO
800 PM MST WED FEB 22 2017

NOTE: "FAIR" INDICATES FEW OR NO CLOUDS BELOW 12000 FEET WITH NO
SIGNIFICANT WEATHER AND/OR OBSTRUCTIONS TO VISIBILITY.

COZ001>005-013-030-031-230400-
...NORTHWEST COLORADO...

CITY           SKY/WX    TMP DP  RH WIND       PRES   REMARKS
CRAIG          MOCLDY    33  26  75 CALM      29.69F
HAYDEN         FAIR      30  25  80 CALM      29.68F
MEEKER         CLOUDY    35  28  75 NW5       29.65F WCI  31
MOUNT WERNER   NOT AVBL
STEAMBOAT SPGS MOCLDY    29  29  96 S3        29.67F
WALDEN         NOT AVBL
$$

COZ006>008-011-230400-
...WEST CENTRAL VALLEYS...

CITY           SKY/WX    TMP DP  RH WIND       PRES   REMARKS
GRAND JUNCTION FAIR      54  15  21 SW8       29.58F
MONTROSE       FAIR      47  23  38 SE3       29.68F
EAGLE          CLEAR     45  23  42 NE3       29.68F
RIFLE          FAIR      50  24  36 S7        29.61F
DELTA          FAIR      49  21  33 CALM      29.64F
NUCLA          FAIR      52  12  20 S12       29.71F
$$

COZ017>023-064>068-230400-
...SOUTHWEST COLORADO...

CITY           SKY/WX    TMP DP  RH WIND       PRES   REMARKS
DURANGO        FAIR      48  16  27 SW13      29.80F
CORTEZ         FAIR      48  23  37 SW14      29.75F
PAGOSA SPRINGS CLOUDY    47  14  26 SW15G23   29.85F
TELLURIDE      FAIR      40  17  39 S16G37    29.80F
WOLF CREEK PAS CLOUDY    25  16  68 SW32G48   29.91F HAZE    WCI   7
$$

COZ009-010-012-014-032>034-037-058>063-230400-
...CENTRAL COLORADO...

CITY           SKY/WX    TMP DP  RH WIND       PRES   REMARKS
ASPEN          CLOUDY    43  18  36 VRB3      29.70F
BUENA VISTA    FAIR      38  16  41 E6        29.76F
COPPER MTN     CLOUDY    28   7  40 S12       29.84S WCI  18
BERTHOUD PASS  CLOUDY    16   5  62 SE23G30   29.84S WCI  -2
COTTONWOOD PAS FAIR      39   7  26 SW7       29.81F
GUNNISON       FAIR      36  23  59 N8        29.74F
KREMMLING      MOCLDY    39  32  75 E7        29.71F
LEADVILLE      CLOUDY    32   9  38 S9        29.77F WCI  24
MONARCH PASS   CLOUDY    27  16  63 SW29G40   29.94F WCI  11
SALIDA         FAIR      47  17  30 S6        29.83F
SUNLIGHT       NOT AVBL
WILKERSON PASS FAIR      28   7  40 CALM      29.88F
$$

COZ069>075-230400-
...SAN LUIS VALLEY/SANGRE DE CRISTO MOUNTAINS...

CITY           SKY/WX    TMP DP  RH WIND       PRES   REMARKS
ALAMOSA        FAIR      42  27  55 SW22G33   29.83F
LA VETA PASS   MOCLDY    34  21  60 NE25G40   29.87F WCI  21
SAGUACHE       FAIR      37  25  60 SE6       29.81S
$$

COZ035-036-038>040-230400-
...NORTHERN COLORADO FRONT RANGE...

CITY           SKY/WX    TMP DP  RH WIND       PRES   REMARKS
DENVER INTL AP FAIR      37  18  46 N10       29.77R
DMNS CITY PARK   N/A     44  20  38 NE5G14    29.78S
AURORA         MOCLDY    37  18  46 N8        29.78R
FRONT RANGE AP MOCLDY    39  19  45 N6        29.77R
ERIE MUNI ARPT FAIR      44  18  34 N9        29.79R
BOULDER MUN AP FAIR      45  23  42 N10       29.78S
CENTENNIAL     FAIR      42  17  36 N9        29.77S
BROOMFIELD     MOCLDY    45  21  39 N7        29.79S
FORT COLLINS   FAIR      39  26  59 N14       29.79S
LONGMONT       FAIR      43  29  56 N9        29.81S
$$

COZ041-046-047-076>085-087-088-230400-
...PIKES PEAK/PALMER DIVIDE AND SOUTHERN FOOTHILLS...

CITY           SKY/WX    TMP DP  RH WIND       PRES   REMARKS
COLO. SPRINGS  FAIR      50  15  24 SW9       29.72S
A. F. ACADEMY  FAIR      44  18  35 N22G30    29.72S
SCHRIEVER AFB  FAIR      44  14  28 SW12      29.72F
ELLICOTT       FAIR     N/A N/A N/A SW15      29.69F
FALCON         FAIR      41  17  37 NW10      29.75S
FORT CARSON    FAIR      49  15  26 SW8       29.69F
LIMON          FAIR      44  19  36 E12G25    29.70F
MONUMENT HILL  FAIR      34  18  51 N7        29.77S WCI  28
TRINIDAD       FAIR      47  16  29 SW12      29.78S
$$

COZ042>045-048>051-090-091-230400-
...NORTHEAST COLORADO...

CITY           SKY/WX    TMP DP  RH WIND       PRES   REMARKS
GREELEY ARPT   FAIR      41  23  48 N15       29.79S
AKRON          FAIR      39  15  37 NE14      29.74F
BURLINGTON     FAIR      44  21  40 E12       29.72F
WRAY           NOT AVBL
STERLING       FAIR      37  18  44 NE5       29.75F
HOLYOKE        FAIR      39  21  48 N8        29.76F
FORT MORGAN    FAIR      39  15  38 N16       29.75F
$$

COZ086-089-092>099-230400-
...SOUTHEAST COLORADO...

CITY           SKY/WX    TMP DP  RH WIND       PRES   REMARKS
PUEBLO         FAIR      58  23  26 SW20      29.66F
LA JUNTA       FAIR      59  18  20 SW18      29.66F
LAMAR          FAIR      55  16  21 SE14      29.66F
SPRINGFIELD      N/A     54  16  22 W6        29.72F
$$



USA.gov is the U.S. government's official web portal to all federal, state and local government web resources and services.